Starlink 34955

operational
NORAD ID: 65192 Int'l Des: 2025-175 Owner: SPXS Country: US Constellation: starlink
LEOCIRCULARRETROGRADESSO

Starlink 34955について

説明を読み込み中...

リアルタイム位置

3D地球を読み込み中...

次回通過

高度履歴

Altitude vs Time

uPlot chart will show altitude changes over time

軌道要素

1 65192U 25175U 25340.91793647 .00011204 00000-0 77925-3 0 9994
2 65192 97.6025 211.2580 0002327 86.1427 274.0066 15.05658807 18655
Epoch: Dec 6, 2025 • Age: 20 hours

現在のステータス

高度 579.1 km
速度 7.57 km/s
衛星直下点 -80.09°S, 91.14°W
打ち上げ日 Aug 14, 2025
運用期間 0.3 years
タイプ internet

技術仕様

分類 Payload
質量 575.00 kg
乾燥質量 530.00 kg
総質量 575.00 kg
長さ 0.30 m
直径 4.10 m
スパン 29.00 m
形状 Box + pan
製造者 SPXS
バスタイプ Starlink V2MO
フェーズステータス In Orbit
所有者/国 SPXS/US

大規模コンステレーション

Loading constellations...